Regional Weather Roundup
Issued by NWS

Home | Current Version | Previous Version | Graphics & Text | Print | Product List | Glossary On
Versions: 1 2 3 4 5 6 7 8 9 10 11 12 13 14 15 16 17 18 19 20 21 22 23 24 25 26 27 28 29 30 31 32 33 34 35 36 37 38 39 40 41 42 43 44 45 46 47 48 49 50
381
ASUS43 KBIS 161310
RWRND

NORTH DAKOTA REGIONAL WEATHER ROUNDUP
NATIONAL WEATHER SERVICE BISMARCK ND
700 AM CST TUE JAN 16 2018

NOTE: "FAIR" INDICATES FEW OR NO CLOUDS BELOW 12,000 FEET WITH NO
SIGNIFICANT WEATHER AND/OR OBSTRUCTIONS TO VISIBILITY.


NDZ001>003-009>011-017-161400-
NORTHWEST NORTH DAKOTA

CITY           SKY/WX    TMP DP  RH WIND       PRES   REMARKS
WILLISTON      MOCLDY   -10 -15  78 S6        30.52F WCI -23
MINOT          CLOUDY    -1 -12  59 S13       30.56F WCI -19
MINOT AFB      CLOUDY    -7 -14  71 S7        30.56F WCI -21
$$

NDZ018>021-031>035-040>046-161400-
SOUTHWEST NORTH DAKOTA

CITY           SKY/WX    TMP DP  RH WIND       PRES   REMARKS
BISMARCK       PTCLDY   -23 -28  78 CALM      30.70F
DICKINSON      CLEAR    -12 -19  71 S9        30.49F WCI -30
GARRISON         N/A    -11 -17  75 S6        30.58F WCI -25
HETTINGER ARPT CLEAR    -12 -18  74 S8        30.56F WCI -29
$$

NDZ004>008-012>016-024-026-027-054-161400-
NORTHEAST NORTH DAKOTA

CITY           SKY/WX    TMP DP  RH WIND       PRES   REMARKS
GRAND FORKS    FAIR     -17 -23  73 S5        30.75F WCI -30
GRND FRKS AFB  FAIR     -17 -24  69 SW6       30.73F WCI -31
DEVILS LAKE    FAIR     -16 -21  78 SW8       30.66F WCI -34
$$

NDZ022-023-025-028>030-036>039-047>053-161400-
SOUTHEAST NORTH DAKOTA

CITY           SKY/WX    TMP DP  RH WIND       PRES   REMARKS
FARGO          FAIR     -15 -21  74 W5        30.78F WCI -27
JAMESTOWN      CLOUDY   -15 -19  82 CALM      30.70F
$$





USA.gov is the U.S. government's official web portal to all federal, state and local government web resources and services.